OBJECT M, 44890

Orbit data source: Space-Track

You're viewing an Uncataloged Satellite

Recently launched and/or uncataloged satellites may have evolving metadata. Metadata may include but not limited to: Owner, Maufacturer, Bus, Motor, and Mission.

OBJECT M, 44890 is a satellite in SSO that was launched on Fri, 20 Dec 2019 UTC launched from the Taiyaun Space Center, China (TSC). Unknown objects in Earth's orbit typically refer to objects detected orbiting the Earth but have not yet been identified or cataloged. These objects could be anything from previously untracked satellites, spent rocket stages, debris from satellite collisions, or even natural meteoroids temporarily captured by Earth's gravity.

Loading next visibility...
Identifier
44890, 2019-093M
Orbit
SSO
Country
Flag of TBDTBD
Related business
Manufacturer
SAST
Mission
Spacecraft
Bus & Motor
Unknown
Mass
Unknown
Launch date (UTC)
2019-12-20 (6 years ago)
Launch vehicle
Unknown
Launch site
Taiyaun Space Center, China (TSC)
Object type
Unknown
Shape & HBR
Unknown
Radar Cross Section
Small (<0.1 m²)

Expand to show TLE details & history
Last TLE update: 20 hours ago

TLE from 20 hours ago
0 OBJECT M
1 44890U 19093M   25261.04288829  .00013010  00000-0  71116-3 0  9998
2 44890  97.7690 354.7681 0026555 175.3225 184.8260 15.14120054312948
Epoch: 2025-09-18T01:01Z
TLE epoch observation values (Epoch: 2025-09-18T01:01:45.548Z)
Latitude
0.00007°
Longitude
-17.88185°
Altitude
544.99 km
Speed
7.58 km/s
True Right ascension
23h 39m 04s
True Declination
0° 00' 00"
Sunlit
Object was in full shadow at epoch
Visualization orbit readout
Latitude
Unknown
Longitude
Unknown
Altitude
Unknown
Speed
Unknown
Apparent Right ascension
Unknown
Apparent Declination
Unknown
Sunlit
N/A
Visualization observer readout
Local Sidereal Time
13:41:19
Azimuth
Unknown
Elevation
Unknown
Doppler factor
Unknown
Orbital elements
Apogee altitude
538.961 km
Perigee altitude
502.321 km
Semi-major axis
6,898.778 km
Eccentricity
0.00266
Inclination
97.769°
RAAN
354.7681°
Arg. of periapsis
175.3225°
True anomaly
184.80048°
Mean anomaly
184.826°
Eccentric anomaly
184.81323°
Mean motion
3.78778 °/min
Orbital period
95.04 mins
BSTAR
0.00071116
Loading maneuver chart data...
Computing Atmospheric mass density...
Loading historical data...
Loading historical data...
Loading historical data...
Loading historical data...
Loading historical data...
Loading historical data...
Loading historical data...

Documentation

Showing up to 5 results
|